GW3787 Weather Reports


Display with metric or nautical units.
time (UTC)temp
F
wind
direction
speed
MPH
gust
MPH
rain 1hr
in
rain 24hr
in
rain mn
in
humidity
%
barometer
mb
20260502194529 62 33 2.0 9.0 0.00 0.00 0.00 40 1014.7
20260502193027 61 24 1.0 8.0 0.00 0.00 0.00 45 1014.8
20260502191523 60 16 3.0 13.0 0.00 0.00 0.00 44 1015.1
20260502190028 59 23 3.0 9.0 0.00 0.00 0.00 44 1015.2
20260502184535 59 44 6.0 13.0 0.00 0.00 0.00 45 1015.3
20260502183035 59 15 4.0 12.0 0.00 0.00 0.00 46 1015.3
20260502181532 59 22 5.0 14.0 0.00 0.00 0.00 46 1015.3
20260502163020 59 341 3.0 14.0 0.00 0.00 0.00 47 1015.2
20260502161511 60 14 4.0 13.0 0.00 0.00 0.00 46 1015.2
20260502151612 57 27 6.0 12.0 0.00 0.00 0.00 46 1015.1
20260502123029 43 27 0.0 0.0 0.00 0.00 0.00 69 1014.7
20260502121526 43 27 0.0 1.0 0.00 0.00 0.00 68 1014.5
20260502114518 45 27 0.0 1.0 0.00 0.00 0.00 62 1014.3
20260502113017 46 27 0.0 1.0 0.00 0.00 0.00 60 1014.3
20260502111515 46 27 0.0 2.0 0.00 0.00 0.00 61 1014.3
20260502110014 46 27 0.0 4.0 0.00 0.00 0.00 60 1014.2
20260502104515 47 27 0.0 4.0 0.00 0.00 0.00 58 1013.9
20260502103013 47 27 0.0 3.0 0.00 0.00 0.00 56 1013.5
20260502101522 48 27 0.0 5.0 0.00 0.00 0.00 54 1013.3
20260502090113 48 27 0.0 6.0 0.00 0.00 0.00 51 1012.4
20260502070057 48 316 0.0 2.0 0.00 0.00 0.00 50 1011.4
20260502064548 48 316 3.0 6.0 0.00 0.00 0.00 50 1011.6
20260502063041 47 335 0.0 2.0 0.00 0.00 0.00 53 1011.5
20260502061540 48 335 0.0 4.0 0.00 0.00 0.00 51 1011.5
20260502060036 45 335 0.0 3.0 0.00 0.00 0.00 56 1011.7
20260502054539 45 335 0.0 3.0 0.00 0.00 0.00 55 1011.7
20260502053035 46 335 0.0 2.0 0.00 0.00 0.00 54 1011.7
20260502051541 47 335 1.0 5.0 0.00 0.00 0.00 52 1011.8
20260502050039 48 335 0.0 1.0 0.00 0.00 0.00 49 1011.6
20260502044533 47 335 0.0 4.0 0.00 0.00 0.00 51 1011.5
20260502043033 47 335 0.0 1.0 0.00 0.00 0.00 53 1011.4
20260502041535 50 335 0.0 4.0 0.00 0.00 0.00 46 1011.2
20260502040036 49 335 0.0 0.0 0.00 0.00 0.00 49 1011.1
20260502034531 50 335 0.0 0.0 0.00 0.00 0.00 48 1011.1
20260502033130 51 335 0.0 3.0 0.00 0.00 0.00 48 1011.0
20260502031530 52 335 0.0 1.0 0.00 0.00 0.00 47 1010.7
20260502030030 54 335 0.0 1.0 0.00 0.00 0.00 45 1010.6
20260502024535 55 10 1.0 5.0 0.00 0.00 0.00 44 1010.5
20260502023029 57 10 2.0 5.0 0.00 0.00 0.00 42 1010.5
20260502021528 62 10 0.0 0.0 0.00 0.00 0.00 32 1010.3
20260502020028 64 10 0.0 1.0 0.00 0.00 0.00 28 1010.2
20260502014527 67 10 0.0 1.0 0.00 0.00 0.00 26 1010.1
20260502013037 68 10 0.0 3.0 0.00 0.00 0.00 24 1010.2
20260502011526 70 10 0.0 1.0 0.00 0.00 0.00 24 1010.2
20260502010023 71 10 0.0 4.0 0.00 0.00 0.00 23 1010.5
20260502004522 72 10 0.0 3.0 0.00 0.00 0.00 21 1010.5
20260502003020 72 332 0.0 4.0 0.00 0.00 0.00 22 1010.7
20260502001521 73 360 1.0 8.0 0.00 0.00 0.00 21 1010.8
20260502000018 72 303 5.0 12.0 0.00 0.00 0.00 20 1010.8
20260501234517 72 314 6.0 13.0 0.00 0.00 0.00 20 1011.0
20260501233020 72 318 0.0 5.0 0.00 0.00 0.00 20 1011.2
20260501231513 72 293 10.0 17.0 0.00 0.00 0.00 20 1011.3
20260501230012 72 360 2.0 9.0 0.00 0.00 0.00 20 1011.5
20260501224510 72 314 4.0 11.0 0.00 0.00 0.00 22 1011.5
20260501223008 72 351 2.0 13.0 0.00 0.00 0.00 22 1011.8
20260501221509 71 306 9.0 15.0 0.00 0.00 0.00 22 1011.9
20260501220007 72 308 5.0 16.0 0.00 0.00 0.00 22 1012.0
20260501214505 71 334 6.0 19.0 0.00 0.00 0.00 22 1012.2
20260501213003 72 360 3.0 15.0 0.00 0.00 0.00 23 1012.3
20260501211501 71 322 9.0 15.0 0.00 0.00 0.00 23 1012.5
20260501210119 71 301 9.0 14.0 0.00 0.00 0.00 22 1012.6
20260501204600 72 314 3.0 19.0 0.00 0.00 0.00 23 1012.6
20260501203101 72 316 5.0 16.0 0.00 0.00 0.00 24 1012.6
20260501201602 71 360 7.0 14.0 0.00 0.00 0.00 23 1012.6
20260501200054 72 318 2.0 16.0 0.00 0.00 0.00 23 1012.9